Location: Newark
(48.1500°N, 2.9667°W)
Time: 20:50:57
(UTC+00:00)

A-11 Canister half - Pass Details

Date: 20 January 2020
Orbit: 1524 x 1684 km, 47.3° (Epoch: 22 February)

Event Time Altitude Azimuth Distance (km) Brightness Sun altitude
Rises 02:39:31 0° 290° (WNW) 4,828 - -50.8°
Reaches altitude 10° 02:43:20 10° 278° (W) 3,864 - -50.3°
Maximum altitude 02:50:42 25° 229° (SW) 2,910 - -49.3°
Drops below altitude 10° 02:58:12 10° 180° (S) 3,926 - -48.2°
Sets 03:02:09 0° 168° (SSE) 4,920 - -47.6°
